GALAXY 25 (G-25)        
1 24812U 97026A   19264.22039737  .00000151  00000-0  00000+0 0  9992
2 24812   1.2902  92.6001 0002479 125.8598 253.5728  1.00271159 81693
SL-12 R/B(2)            
1 24815U 97026D   19264.39584095 -.00000144  00000-0  00000+0 0  9998
2 24815  18.0562 294.8138 5312383 276.3445  73.6426  1.89869831154871